Regional Weather Roundup
Issued by NWS

Home | Current Version | Previous Version | Text Only | Print | Product List | Glossary On
Versions: 1 2 3 4 5 6 7 8 9 10 11 12 13 14 15 16 17 18 19 20 21 22 23 24 25 26 27 28 29 30 31 32 33 34 35 36 37 38 39 40 41 42 43 44 45 46 47 48 49 50
560
ASUS43 KMKX 190811
RWRWI

WISCONSIN REGIONAL WEATHER ROUNDUP
NATIONAL WEATHER SERVICE MILWAUKEE/SULLIVAN WI
300 AM CDT TUE SEP 19 2017

NOTE: "FAIR" INDICATES FEW OR NO CLOUDS BELOW 12,000 FEET WITH NO
SIGNIFICANT WEATHER AND/OR OBSTRUCTIONS TO VISIBILITY.

WIZ001-002-006>008-014>016-023>028-190900-
NORTHWEST WISCONSIN

CITY           SKY/WX    TMP DP  RH WIND       PRES   REMARKS
SUPERIOR ARPT  CLOUDY    56  53  90 CALM      29.98S
ASHLAND        CLOUDY    56  54  93 CALM      30.00S
HAYWARD        CLOUDY    59  55  87 VRB6      29.98F
SIREN          CLOUDY    58  55  89 CALM      29.96S
CUMBERLAND     CLOUDY    55  54  94 CALM      29.97F
RICE LAKE      CLOUDY    58  56  95 E6        29.98S
CHETEK         CLOUDY    58  57  97 E3        29.97S
LADYSMITH      CLOUDY    58  56  94 E7        30.00F
EAU CLAIRE     MOCLDY    58  56  93 E3        29.96S
MENOMONIE      CLOUDY    58  56  96 E3        29.97S
NEW RICHMOND   CLOUDY    57  55  94 E5        29.95F
OSCEOLA        CLOUDY    58  58 100 E3        29.97S
$$

WIZ003>005-009-010-017-018-190900-
NORTH CENTRAL WISCONSIN

CITY           SKY/WX    TMP DP  RH WIND       PRES   REMARKS
MANITOWISH WTR CLOUDY    54  54 100 SE7       30.02S
ARBOR VITAE    CLOUDY    57  54  91 SE5       30.02F
WOODRUFF       CLOUDY    57  54  91 SE5       30.02F
RHINELANDER    MOCLDY    52  52 100 E5        30.03F
EAGLE RIVER    CLOUDY    55  51  88 SE6       30.03S
LAND O LAKES   CLOUDY    54  52  94 CALM      30.05S
PHILLIPS       CLOUDY    55  55  99 SE6       30.00F
TOMAHAWK         N/A     54  52  94 CALM      30.02F
MEDFORD        CLOUDY    55  53  94 CALM      30.00F
MERRILL          N/A     55  55 100 CALM      30.03S
$$

WIZ029-030-035-036-043>047-190900-
CENTRAL WISCONSIN

CITY           SKY/WX    TMP DP  RH WIND       PRES   REMARKS
WAUSAU         PTCLDY    54  53  97 E3        30.01S
MOSINEE        MOCLDY    52  52 100 E3        30.02S
MARSHFIELD     MOCLDY    56  52  86 E8        29.99F
STEVENS POINT  MOCLDY    55  52  92 E3        30.02S
WAUPACA        CLOUDY    59  54  84 CALM      30.01S
WAUTOMA        CLOUDY    58  54  86 N3        30.01S
WISC RAPIDS    CLOUDY    58  53  84 E5        30.01F
CAMP DOUGLAS   CLOUDY    59  55  86 E6        29.99S
$$

WIZ011>013-019>022-031-037>040-048>050-190900-
NORTHEAST WISCONSIN

CITY           SKY/WX    TMP DP  RH WIND       PRES   REMARKS
ANTIGO         MOCLDY    53  50  90 E5        30.03F
SHAWANO        CLOUDY    60  54  79 E7        30.02F
OCONTO         CLOUDY    58  54  84 NE3       30.03S
STURGEON BAY   CLOUDY    60  57  89 N5        30.04S
GREEN BAY      CLOUDY    59  58  96 NE8       30.01F
MANITOWOC      PTCLDY    58  56  93 N7        30.00F
APPLETON       CLOUDY    57  50  77 NE6       29.99F
CLINTONVILLE   CLOUDY    57  52  82 E3        30.01F
OSHKOSH        MOCLDY    61  57  87 NE7       29.99F
$$

WIZ032>034-041-042-053>061-190900-
SOUTHWEST WISCONSIN

CITY           SKY/WX    TMP DP  RH WIND       PRES   REMARKS
LA CROSSE      CLOUDY    61  60  97 CALM      29.95F
SPARTA         CLOUDY    56  55  98 E3        29.98S
VIROQUA        CLOUDY    59  59 100 E7        29.97F
BOSCOBEL       PTCLDY    57  56  96 CALM      29.96F
PRAIRIE DU CHI CLEAR     59  56  90 CALM      29.95F
PLATTEVILLE    CLEAR     61  57  88 E8        29.97F
$$

WIZ056-057-062-063-064-067-068-190900-
SOUTH CENTRAL WISCONSIN

CITY           SKY/WX    TMP DP  RH WIND       PRES   REMARKS
REEDSBURG      MOCLDY    58  55  89 E3        29.98S
BARABOO/DELLS  CLOUDY    58  52  80 E5        29.99S
LONE ROCK      CLOUDY    61  56  83 SE3       29.97S
MINERAL POINT  CLOUDY    61  57  88 E6        29.98S
MADISON        CLOUDY    59  56  89 NW5       29.97F
MIDDLETON      CLOUDY    61  57  87 CALM      29.98S
WATERTOWN      CLOUDY    59  59 100 CALM      29.97F
MONROE         MOCLDY    59  55  88 N3        29.98F
JANESVILLE     CLOUDY    63  63 100 W6        29.98R
$$

WIZ051-052-058>065-066-070>072-190900-
SOUTHEAST WISCONSIN

CITY           SKY/WX    TMP DP  RH WIND       PRES   REMARKS
MILWAUKEE      CLOUDY    65  62  90 NE3       29.96F
WAUKESHA       CLOUDY    55  54  94 CALM      29.98S
MILWAUKEE/TIMM CLOUDY    59  54  82 N3        29.98S
RACINE         CLOUDY    63  62  97 N3        29.97F
BURLINGTON     CLOUDY    60  60 100 CALM      29.97S
KENOSHA        CLOUDY    63  60  90 CALM      29.97S
FOND DU LAC    PTCLDY    58  53  84 N5        29.99F
SHEBOYGAN      CLOUDY    58  58 100 NE5       29.98F
WEST BEND        N/A     57  55  94 CALM      29.98F
JUNEAU         MOCLDY    58  55  91 CALM      29.98F
$$

LSZ147-162-190900-
LAKE SUPERIOR

STATION/POSITION TIME  TEMP    WIND        PRES    WAVE
                       AIR SEA DIR/SP/G            HT/PER
                 (UTC) (F)     (DEG/KT/KT) (MB)    (FT/S)
W MID LAKE BUOY  0750   57 54  150/  8/ 10 1016.0F   1
DEVILS ISLAND    0800   59     140/  5/  7 1015.8F
PORT WING        0730   58     160/  2/  4 1015.2F
SAXON HARBOR     0730   60     180/  4/  8 1014.9F
$$

LMZ867-665-643>646-190900-
LAKE MICHIGAN

STATION/POSITION TIME  TEMP    WIND        PRES    WAVE
                       AIR SEA DIR/SP/G            HT/PER
                 (UTC) (F)     (DEG/KT/KT) (MB)    (FT/S)
S GREEN BAY BUOY 0800   63 66   50/ 14/ 16 1016.4
N MID LAKE BUOY  0750   64 64  100/ 12/ 14 1018.2R   2/ 4
NORTHPORT PIER   0740   63     360/  8/  9 1017.6R
KEWAUNEE LAKESHO 0748   60      20/  4/  7 1015.5F
SHEBOYGAN LAKESH 0800   61      20/  6/  7 1015.0F
PORT WASHINGTON  0740   62     330/  5/  7 1015.9F
ATWATER BUOY     0709   66 67   10/  6/  8 1015.0F
MILWAUKEE LAKESH 0750   65      30/  5/  6   N/A
S MID LAKE BUOY  0750   68 68   80/ 12/ 14 1014.1F   2/ 5
KENOSHA   LAKESH 0800   67      20/  5/  7 1014.2
$$

TC  - TEMPERATURE IN CELSIUS
VSB - VISIBILITY IN STATUTE MILES
WCI - WIND CHILL INDEX
HX  - HEAT INDEX





USA.gov is the U.S. government's official web portal to all federal, state and local government web resources and services.